Hourly Data Report for July 13, 2021

TORONTO CITY CENTRE
ONTARIO
Current Station Operator: NAVCAN

43°37'39.000" N
79°23'46.000" W
76.80 m
6158359
71265
YTZ

Download Data

Hourly Data (July 2021)
Hourly Data Report for July 13, 2021
TIME
LST
Temp Definition
°C
Dew Point Definition
°C
Rel Hum Definition
%
Precip. Amount Definition
mm

Wind Dir Definition
10's deg

Wind Spd Definition
km/h
Visibility Definition
km
Stn Press Definition
kPa
Hmdx Definition


Wind Chill Definition


Weather Definition


00:00 20.7 19.0 90 0.0 6 18 16.1 100.99 27   LegendNANA
01:00 20.4 19.3 93 0.0 7 17 16.1 100.97 27   LegendNANA
02:00 20.5 19.5 94 0.0 7 13 16.1 100.94 28   LegendNANA
03:00 20.4 19.5 94 0.0 7 17 16.1 100.95 28   LegendNANA
04:00 20.3 19.7 96 0.0 7 11 16.1 100.95 28   LegendNANA
05:00 20.4 19.8 96 0.0 7 11 16.1 100.97 28   LegendNANA
06:00 20.7 20.2 97 0.0 7 11 16.1 100.99 28   LegendNANA
07:00 20.9 20.3 96 0.0 8 11 16.1 100.98 29   LegendNANA
08:00 20.9 20.4 97 0.0 8 13 14.5 100.94 29   LegendNANA
09:00 21.3 20.5 95 0.0 8 9 4.8 100.97 29   Fog
10:00 22.3 20.7 90 0.0 8 13 16.1 100.96 30   LegendNANA
11:00 22.1 20.7 92 0.0 7 13 9.7 100.93 30   Fog
12:00 23.1 21.3 90 0.0 7 15 16.1 100.87 32   LegendNANA
13:00 23.1 21.1 88 0.0 7 18 16.1 100.77 32   LegendNANA
14:00 22.4 21.7 96 0.5 7 17 8.1 100.72 31   Thunderstorms, Fog
15:00 24.0 22.2 89 0.0 7 17 16.1 100.67 34   LegendNANA
16:00 24.9 22.2 85 0.0 LegendMM 5 16.1 100.70 34   LegendNANA
17:00 23.4 21.5 89 0.0 8 9 16.1 100.67 32   LegendNANA
18:00 24.5 21.3 82 0.2 21 5 16.1 100.62 33   LegendNANA
19:00 22.9 20.7 87 0.0 20 22 16.1 100.62 31   LegendNANA
20:00 21.9 20.6 92 0.0 20 15 16.1 100.64 30   LegendNANA
21:00 21.7 20.5 93 0.0 19 21 16.1 100.61 30   LegendNANA
22:00 21.2 20.2 94 0.0 16 13 16.1 100.63 29   LegendNANA
23:00 21.1 20.5 96 0.0 22 17 16.1 100.66 29   LegendNANA

Notes on Data Quality.

Legend

  • E = Estimated
  • M = Missing
  • NA = Not Available*
  • [empty] = Indicates an unobserved value
Date modified: